FW5359 Weather Reports


time (UTC)temp
C
wind
direction
speed
KPH
gust
KPH
rain 1hr
cm
rain 24hr
cm
rain mn
cm
humidity
%
barometer
mb
20260902130649 24 176 0.0 0.0 0.00 0.00 0.00 86 1017.4
20260902130143 24 176 0.0 0.0 0.00 0.00 0.00 87 1017.3
20260902125637 23 176 0.0 0.0 0.00 0.00 0.00 87 1017.3
20260902125401 23 176 0.0 0.0 0.00 0.00 0.00 86 1017.2
20260902124625 23 176 0.0 0.0 0.00 0.00 0.00 85 1017.2
20260902124119 23 176 0.0 0.0 0.00 0.00 0.00 85 1017.2
20260902123612 23 176 0.0 0.0 0.00 0.00 0.00 85 1017.1
20260902123106 24 176 0.0 0.0 0.00 0.00 0.00 86 1017.0
20260902122600 24 176 0.0 0.0 0.00 0.00 0.00 86 1016.9
20260902122054 23 176 0.0 0.0 0.00 0.00 0.00 85 1016.8
20260902121549 23 176 0.0 0.0 0.00 0.00 0.00 84 1016.9
20260902121043 23 176 0.0 0.0 0.00 0.00 0.00 84 1016.9
20260902120537 24 176 0.0 0.0 0.00 0.00 0.00 85 1016.8
20260902120030 24 176 0.0 0.0 0.00 0.00 0.00 86 1016.9
20260902115524 24 176 0.0 0.0 0.00 0.00 0.00 86 1016.9
20260902115250 24 176 0.0 0.0 0.00 0.00 0.00 85 1016.9
20260902114743 24 176 0.0 0.0 0.00 0.00 0.00 86 1016.8
20260902114007 24 176 0.0 0.0 0.00 0.00 0.00 86 1016.8
20260902113500 24 176 0.0 0.0 0.00 0.00 0.00 85 1016.8
20260902112954 24 176 0.0 0.0 0.00 0.00 0.00 85 1016.8
20260902112449 24 176 0.0 0.0 0.00 0.00 0.00 85 1016.8
20260902111943 24 176 0.0 0.0 0.00 0.00 0.00 85 1016.8
20260902111437 24 176 0.0 0.0 0.00 0.00 0.00 84 1016.8
20260902110931 24 176 0.0 0.0 0.00 0.00 0.00 84 1016.9
20260902110424 24 176 0.0 0.0 0.00 0.00 0.00 84 1016.7
20260902105918 24 176 0.0 0.0 0.00 0.00 0.00 84 1016.7
20260902105412 24 176 0.0 0.0 0.00 0.00 0.00 83 1016.6
20260902104906 24 176 0.0 0.0 0.00 0.00 0.00 83 1016.6
20260902104401 24 176 0.0 0.0 0.00 0.00 0.00 83 1016.7
20260902103620 24 176 0.0 0.0 0.00 0.00 0.00 83 1016.7
20260902102842 24 176 0.0 0.0 0.00 0.00 0.00 83 1016.7
20260902102337 24 176 0.0 0.0 0.00 0.00 0.00 82 1016.7
20260902101831 24 176 0.0 0.0 0.00 0.00 0.00 82 1016.7
20260902101325 24 176 0.0 0.0 0.00 0.00 0.00 82 1016.6
20260902101049 24 176 0.0 0.0 0.00 0.00 0.00 81 1016.6
20260902100313 24 176 0.0 0.0 0.00 0.00 0.00 81 1016.7
20260902095805 24 176 0.0 0.0 0.00 0.00 0.00 81 1016.7
20260902095307 24 176 0.0 0.0 0.00 0.00 0.00 80 1016.8
20260902095034 24 176 0.0 0.0 0.00 0.00 0.00 79 1016.8
20260902094304 25 176 0.0 0.0 0.00 0.00 0.00 78 1016.8
20260902094035 25 176 0.0 0.0 0.00 0.00 0.00 79 1016.8
20260902093303 25 176 0.0 0.0 0.00 0.00 0.00 79 1016.7
20260902092802 25 176 0.0 0.0 0.00 0.00 0.00 79 1016.7
20260902092305 25 176 0.0 0.0 0.00 0.00 0.00 79 1016.7
20260902091802 25 176 0.0 0.0 0.00 0.00 0.00 79 1016.8
20260902091302 25 176 0.0 0.0 0.00 0.00 0.00 79 1016.9
20260902090758 25 176 0.0 0.0 0.00 0.00 0.00 78 1016.9
20260902090529 25 176 0.0 0.0 0.00 0.00 0.00 78 1016.9
20260902085757 25 176 0.0 0.0 0.00 0.00 0.00 77 1017.0
20260902085257 25 176 0.0 0.0 0.00 0.00 0.00 77 1017.0
20260902085028 25 176 0.0 0.0 0.00 0.00 0.00 77 1017.0
20260902084528 25 176 0.0 0.0 0.00 0.00 0.00 77 1016.9
20260902083758 25 176 0.0 0.0 0.00 0.00 0.00 76 1016.8
20260902083258 26 176 0.0 0.0 0.00 0.00 0.00 76 1016.9
20260902082758 26 176 0.0 0.0 0.00 0.00 0.00 75 1016.9
20260902082253 26 176 0.0 0.0 0.00 0.00 0.00 75 1016.9
20260902081751 26 176 0.0 0.0 0.00 0.00 0.00 75 1016.9
20260902081250 26 176 0.0 0.0 0.00 0.00 0.00 75 1017.0
20260902080748 26 176 0.0 0.0 0.00 0.00 0.00 75 1016.9
20260902080516 26 176 0.0 0.0 0.00 0.00 0.00 74 1017.0
20260902075746 26 176 0.0 0.0 0.00 0.00 0.00 74 1017.1
20260902075244 26 176 0.0 0.0 0.00 0.00 0.00 73 1017.1
20260902074742 26 176 0.0 0.0 0.00 0.00 0.00 73 1017.1
20260902074240 26 176 0.0 0.0 0.00 0.00 0.00 73 1017.1
20260902073737 26 176 0.0 6.4 0.00 0.00 0.00 72 1017.0
20260902073235 26 176 0.0 6.4 0.00 0.00 0.00 72 1017.1
20260902072734 27 177 0.0 3.2 0.00 0.00 0.00 71 1017.0
20260902072234 27 177 0.0 3.2 0.00 0.00 0.00 71 1017.0
20260902071731 27 177 1.6 6.4 0.00 0.00 0.00 70 1017.1
20260902071232 27 177 1.6 6.4 0.00 0.00 0.00 70 1017.0
20260902071001 27 177 1.6 8.0 0.00 0.00 0.00 70 1017.1
20260902070229 27 178 1.6 9.7 0.00 0.00 0.00 70 1017.0
20260902065729 27 196 1.6 9.7 0.00 0.00 0.00 69 1017.1
20260902065228 27 169 1.6 9.7 0.00 0.00 0.00 69 1017.0
20260902064721 27 171 1.6 9.7 0.00 0.00 0.00 68 1016.9
20260902064446 27 171 1.6 6.4 0.00 0.00 0.00 68 1017.0
20260902063709 27 171 1.6 8.0 0.00 0.00 0.00 67 1016.9
20260902063434 27 171 3.2 9.7 0.00 0.00 0.00 67 1016.9
20260902062657 27 171 3.2 9.7 0.00 0.00 0.00 67 1016.9
20260902062151 28 174 1.6 8.0 0.00 0.00 0.00 66 1016.8
20260902061645 28 174 3.2 9.7 0.00 0.00 0.00 66 1016.9
20260902060633 28 166 3.2 9.7 0.00 0.00 0.00 66 1016.8
20260902060127 28 222 3.2 9.7 0.00 0.00 0.00 66 1016.9
20260902055621 28 168 1.6 6.4 0.00 0.00 0.00 67 1016.9
20260902055115 28 167 3.2 9.7 0.00 0.00 0.00 67 1016.8
20260902054610 28 167 3.2 14.5 0.00 0.00 0.00 67 1016.9
20260902054109 28 168 3.2 14.5 0.00 0.00 0.00 67 1016.8
20260902053840 28 166 1.6 8.0 0.00 0.00 0.00 67 1016.9
20260902053111 28 165 1.6 6.4 0.00 0.00 0.00 67 1016.9
20260902052611 28 166 1.6 11.3 0.00 0.00 0.00 67 1016.8
20260902052109 28 166 1.6 11.3 0.00 0.00 0.00 66 1016.7
20260902051609 28 123 1.6 8.0 0.00 0.00 0.00 66 1016.7
20260902051105 28 116 1.6 8.0 0.00 0.00 0.00 66 1016.7
20260902050604 28 122 1.6 9.7 0.00 0.00 0.00 66 1016.7
20260902050101 28 116 3.2 9.7 0.00 0.00 0.00 66 1016.6
20260902045601 28 145 3.2 11.3 0.00 0.00 0.00 65 1016.6
20260902045101 29 141 1.6 11.3 0.00 0.00 0.00 65 1016.5
20260902044832 29 128 1.6 3.2 0.00 0.00 0.00 65 1016.6
20260902044101 29 128 1.6 6.4 0.00 0.00 0.00 64 1016.6
20260902043601 29 128 1.6 6.4 0.00 0.00 0.00 64 1016.6
20260902043324 29 128 3.2 6.4 0.00 0.00 0.00 64 1016.6
20260902042818 29 132 3.2 12.9 0.00 0.00 0.00 64 1016.6
20260902042041 30 128 3.2 9.7 0.00 0.00 0.00 63 1016.6
20260902041558 30 144 3.2 12.9 0.00 0.00 0.00 63 1016.6
20260902041039 30 68 4.8 12.9 0.00 0.00 0.00 63 1016.6
20260902040538 30 130 3.2 12.9 0.00 0.00 0.00 62 1016.5
20260902040308 30 109 4.8 14.5 0.00 0.00 0.00 62 1016.4
20260902035537 30 155 3.2 14.5 0.00 0.00 0.00 62 1016.4
20260902035037 30 119 3.2 11.3 0.00 0.00 0.00 62 1016.4
20260902034537 30 122 3.2 11.3 0.00 0.00 0.00 62 1016.4
20260902034034 30 104 3.2 11.3 0.00 0.00 0.00 62 1016.3
20260902033534 30 107 3.2 9.7 0.00 0.00 0.00 62 1016.2
20260902033034 30 111 1.6 9.7 0.00 0.00 0.00 61 1016.2
20260902032534 30 111 1.6 9.7 0.00 0.00 0.00 61 1016.1
20260902032035 30 115 3.2 9.7 0.00 0.00 0.00 61 1016.1
20260902031535 30 110 1.6 6.4 0.00 0.00 0.00 61 1016.0
20260902031040 30 111 1.6 4.8 0.00 0.00 0.00 60 1016.0
20260902030532 30 111 1.6 4.8 0.00 0.00 0.00 60 1015.9
20260902030030 30 111 1.6 3.2 0.00 0.00 0.00 60 1015.9
20260902025800 30 111 1.6 4.8 0.00 0.00 0.00 59 1015.8
20260902025030 30 111 0.0 4.8 0.00 0.00 0.00 59 1015.7
20260902024525 30 111 0.0 0.0 0.00 0.00 0.00 59 1015.6
20260902023513 30 111 0.0 0.0 0.00 0.00 0.00 58 1015.4
20260902023009 30 111 0.0 0.0 0.00 0.00 0.00 57 1015.3
20260902022501 30 111 0.0 0.0 0.00 0.03 0.00 56 1015.3
20260902022225 30 111 0.0 0.0 0.00 0.03 0.00 55 1015.0
20260902021449 30 111 0.0 0.0 0.00 0.03 0.00 55 1014.8
20260902020942 30 111 0.0 0.0 0.00 0.03 0.00 54 1014.8
20260902020437 31 111 0.0 0.0 0.00 0.03 0.00 53 1014.7
20260902020201 31 111 0.0 0.0 0.00 0.03 0.00 53 1014.6
20260902015424 31 111 0.0 0.0 0.00 0.03 0.00 52 1014.5
20260902014919 31 111 0.0 0.0 0.00 0.03 0.00 52 1014.4
20260902014413 31 111 0.0 0.0 0.00 0.03 0.00 51 1014.4
20260902014137 31 111 0.0 0.0 0.00 0.03 0.00 51 1014.4
20260902013401 31 111 0.0 0.0 0.00 0.03 0.00 50 1014.3
20260902012855 32 111 0.0 0.0 0.00 0.03 0.00 50 1014.3
20260902012349 32 111 0.0 0.0 0.00 0.03 0.00 49 1014.3
20260902012113 32 111 0.0 0.0 0.00 0.03 0.00 49 1014.3
20260902011336 32 111 0.0 0.0 0.00 0.03 0.00 49 1014.3
20260902010831 32 111 0.0 0.0 0.00 0.03 0.00 48 1014.2
20260902010324 32 111 0.0 0.0 0.00 0.03 0.00 48 1014.2
20260902005819 32 111 0.0 0.0 0.00 0.03 0.00 48 1014.2
20260902005317 32 111 0.0 0.0 0.00 0.03 0.00 48 1014.1
20260902004806 33 111 0.0 0.0 0.00 0.03 0.00 48 1014.1
20260902004301 33 111 0.0 0.0 0.00 0.03 0.00 47 1014.1
20260902004025 33 111 0.0 0.0 0.00 0.03 0.00 47 1014.1
20260902003249 33 111 0.0 0.0 0.00 0.03 0.00 47 1014.2
20260902002743 33 111 0.0 0.0 0.00 0.03 0.00 46 1014.1
20260902002237 33 111 0.0 3.2 0.00 0.03 0.00 46 1014.1
20260902001731 33 111 0.0 4.8 0.00 0.03 0.00 46 1014.1
20260902001225 34 111 1.6 6.4 0.00 0.03 0.00 46 1014.1
20260902000718 34 110 1.6 9.7 0.00 0.03 0.00 45 1014.1
20260902000444 34 113 1.6 9.7 0.00 0.03 0.00 45 1014.1
20260901235707 35 112 1.6 9.7 0.00 0.03 0.00 44 1014.1
20260901235201 35 107 3.2 9.7 0.00 0.03 0.00 44 1014.1
20260901234922 35 129 1.6 8.0 0.00 0.03 0.00 43 1014.1
20260901234146 35 160 1.6 8.0 0.00 0.03 0.00 43 1014.2
20260901233640 35 161 1.6 8.0 0.00 0.03 0.00 42 1014.2
20260901233140 35 161 3.2 9.7 0.00 0.03 0.00 42 1014.2
20260901232638 35 162 3.2 11.3 0.00 0.03 0.00 42 1014.2
20260901232135 35 164 3.2 11.3 0.00 0.03 0.00 41 1014.3
20260901231636 35 167 3.2 12.9 0.00 0.03 0.00 41 1014.3
20260901231408 35 116 3.2 12.9 0.00 0.03 0.00 41 1014.2
20260901230634 35 98 3.2 9.7 0.00 0.03 0.00 41 1014.3
20260901230134 35 123 3.2 12.9 0.00 0.03 0.00 41 1014.3
20260901225904 35 142 3.2 12.9 0.00 0.03 0.00 41 1014.4
20260901225134 35 80 1.6 8.0 0.00 0.03 0.00 41 1014.4
20260901224905 35 59 1.6 6.4 0.00 0.03 0.00 41 1014.4
20260901224134 35 122 3.2 11.3 0.00 0.03 0.00 41 1014.4
20260901223634 35 126 3.2 11.3 0.00 0.03 0.00 41 1014.4
20260901223134 35 168 3.2 12.9 0.00 0.03 0.00 40 1014.4
20260901222633 36 130 3.2 12.9 0.00 0.03 0.00 40 1014.3
20260901222133 36 88 1.6 6.4 0.00 0.03 0.00 39 1014.3
20260901221634 36 95 1.6 6.4 0.00 0.03 0.00 41 1014.3
20260901221134 36 96 3.2 12.9 0.00 0.03 0.00 40 1014.4
20260901220905 36 136 3.2 12.9 0.00 0.03 0.00 40 1014.4
20260901220134 36 109 4.8 14.5 0.00 0.03 0.00 40 1014.4
20260901215639 36 113 4.8 14.5 0.00 0.03 0.00 41 1014.3
20260901215135 36 150 3.2 12.9 0.00 0.03 0.00 41 1014.4
20260901214636 36 156 3.2 12.9 0.00 0.03 0.00 42 1014.4
20260901214137 36 171 3.2 12.9 0.00 0.03 0.00 41 1014.5
20260901213634 35 98 4.8 14.5 0.00 0.03 0.00 42 1014.5
20260901213131 36 105 3.2 14.5 0.00 0.03 0.00 43 1014.6
20260901212629 35 108 3.2 11.3 0.00 0.03 0.00 42 1014.7
20260901212127 36 120 4.8 12.9 0.00 0.03 0.00 42 1014.7
20260901211626 36 85 3.2 12.9 0.00 0.03 0.00 43 1014.8
20260901211129 35 11 1.6 6.4 0.00 0.03 0.00 43 1014.8
20260901210625 35 5 1.6 8.0 0.00 0.03 0.00 42 1014.9
20260901205626 35 163 4.8 12.9 0.00 0.03 0.00 41 1015.2
20260901205126 35 164 4.8 14.5 0.00 0.03 0.00 42 1015.4
20260901204626 36 182 1.6 14.5 0.00 0.03 0.00 42 1015.4
20260901204123 35 89 1.6 8.0 0.00 0.03 0.00 44 1015.3
20260901203853 35 88 3.2 8.0 0.00 0.03 0.00 43 1015.4
20260901203117 35 172 3.2 12.9 0.00 0.03 0.00 43 1015.6
20260901202610 35 169 3.2 12.9 0.00 0.03 0.00 43 1015.7
20260901202337 35 180 3.2 11.3 0.00 0.03 0.00 43 1015.7
20260901201559 35 80 1.6 11.3 0.00 0.03 0.00 44 1015.8
20260901201053 35 102 1.6 9.7 0.00 0.03 0.00 44 1015.8
20260901200547 34 123 3.2 9.7 0.00 0.03 0.00 44 1015.9
20260901200041 35 49 3.2 11.3 0.00 0.03 0.00 44 1016.1
20260901195534 35 132 3.2 11.3 0.00 0.03 0.00 44 1016.1
20260901195029 35 111 1.6 9.7 0.00 0.03 0.00 43 1016.1
20260901194754 35 286 1.6 9.7 0.00 0.03 0.00 44 1016.1
20260901194017 35 107 3.2 11.3 0.00 0.03 0.00 44 1016.2
20260901193742 35 128 1.6 11.3 0.00 0.03 0.00 45 1016.3
20260901193005 34 128 1.6 8.0 0.00 0.03 0.00 45 1016.3
20260901192459 34 168 3.2 14.5 0.00 0.03 0.00 44 1016.4
20260901191953 34 167 3.2 14.5 0.00 0.03 0.00 44 1016.5
20260901191447 34 111 1.6 11.3 0.00 0.03 0.00 45 1016.5
20260901190941 34 214 3.2 12.9 0.00 0.03 0.00 45 1016.6
20260901190705 34 234 3.2 12.9 0.00 0.03 0.00 46 1016.7
20260901185929 34 153 3.2 9.7 0.00 0.03 0.00 45 1016.8
20260901185423 34 101 3.2 9.7 0.00 0.03 0.00 46 1016.9
20260901184917 34 135 1.6 11.3 0.00 0.03 0.00 47 1017.0
20260901184411 33 134 1.6 11.3 0.00 0.03 0.00 46 1017.1
20260901184136 33 217 3.2 12.9 0.00 0.03 0.00 45 1017.1
20260901183359 33 219 4.8 14.5 0.00 0.03 0.00 45 1017.2
20260901182853 34 150 3.2 16.1 0.00 0.03 0.00 44 1017.4
20260901182617 33 172 1.6 16.1 0.00 0.03 0.00 47 1017.4
20260901181841 33 169 1.6 8.0 0.00 0.03 0.00 50 1017.5
20260901181335 33 240 3.2 9.7 0.00 0.03 0.00 47 1017.5
20260901180829 33 165 4.8 12.9 0.00 0.03 0.00 45 1017.7
20260901180323 33 165 3.2 12.9 0.00 0.03 0.00 49 1017.8
20260901175817 33 219 3.2 9.7 0.00 0.03 0.00 50 1017.8
20260901175311 33 185 1.6 11.3 0.00 0.03 0.00 50 1017.9
20260901174805 33 149 3.2 11.3 0.00 0.03 0.00 49 1018.1
20260901174259 32 129 3.2 12.9 0.00 0.03 0.00 50 1018.1
20260901173753 32 128 3.2 12.9 0.00 0.03 0.00 50 1018.1
20260901173246 33 109 3.2 11.3 0.00 0.03 0.00 51 1018.2
20260901172741 33 124 1.6 11.3 0.00 0.03 0.00 49 1018.2
20260901172236 32 112 1.6 6.4 0.00 0.03 0.00 51 1018.4
20260901171729 32 140 3.2 14.5 0.00 0.03 0.00 51 1018.3
20260901171223 32 142 4.8 14.5 0.00 0.03 0.00 49 1018.4
20260901170717 32 149 1.6 12.9 0.00 0.03 0.00 52 1018.4
20260901170211 32 129 0.0 4.8 0.00 0.03 0.00 54 1018.5
20260901165705 32 129 1.6 9.7 0.00 0.03 0.00 52 1018.5
20260901165429 32 129 1.6 9.7 0.00 0.03 0.00 51 1018.6
20260901164653 32 125 1.6 9.7 0.00 0.03 0.00 54 1018.6
20260901163641 31 0 1.6 8.0 0.00 0.03 0.00 55 1018.5
20260901163135 31 166 1.6 8.0 0.00 0.03 0.00 57 1018.4
20260901162629 31 165 1.6 6.4 0.00 0.03 0.00 60 1018.4
20260901162122 31 167 3.2 11.3 0.00 0.03 0.00 57 1018.6
20260901161618 31 167 3.2 11.3 0.00 0.03 0.00 55 1018.7
20260901161341 31 107 1.6 9.7 0.00 0.03 0.00 58 1018.7
20260901160611 31 109 1.6 8.0 0.00 0.03 0.00 61 1018.6
20260901160111 31 140 1.6 9.7 0.00 0.03 0.00 61 1018.6
20260901155839 31 165 1.6 9.7 0.00 0.03 0.00 62 1018.5
20260901155109 31 164 1.6 6.4 0.00 0.03 0.00 63 1018.5
20260901154609 30 165 1.6 9.7 0.00 0.03 0.00 64 1018.6
20260901153609 30 111 1.6 8.0 0.00 0.03 0.00 64 1018.5
20260901153108 30 128 1.6 6.4 0.00 0.03 0.00 64 1018.5
20260901152609 30 131 1.6 9.7 0.00 0.03 0.00 67 1018.5
20260901152105 30 132 1.6 9.7 0.00 0.03 0.00 66 1018.5
20260901151605 30 167 0.0 8.0 0.00 0.03 0.00 68 1018.4
20260901151105 30 169 0.0 6.4 0.00 0.03 0.00 69 1018.5
20260901150604 29 169 0.0 8.0 0.00 0.03 0.00 69 1018.5
20260901150104 29 169 1.6 8.0 0.00 0.03 0.00 69 1018.5
20260901145104 28 123 1.6 8.0 0.00 0.03 0.00 70 1018.5
20260901144605 28 159 3.2 9.7 0.00 0.03 0.00 70 1018.5
20260901144105 28 162 1.6 9.7 0.00 0.03 0.00 71 1018.5
20260901143604 28 162 0.0 8.0 0.00 0.03 0.00 75 1018.5
20260901143104 28 163 0.0 0.0 0.00 0.03 0.00 76 1018.5
20260901142605 28 163 0.0 3.2 0.00 0.03 0.00 75 1018.4
20260901142101 28 163 1.6 3.2 0.00 0.03 0.00 76 1018.4
20260901141558 28 163 1.6 8.0 0.00 0.03 0.00 77 1018.5
20260901141057 28 163 0.0 8.0 0.00 0.03 0.00 78 1018.4
20260901140828 27 164 0.0 0.0 0.00 0.03 0.00 78 1018.5
20260901140056 27 164 0.0 0.0 0.00 0.03 0.00 79 1018.5
20260901135555 27 164 0.0 0.0 0.00 0.03 0.00 81 1018.5
20260901135055 27 164 0.0 0.0 0.00 0.03 0.00 81 1018.5
20260901134555 27 164 0.0 0.0 0.00 0.03 0.00 83 1018.3
20260901134053 26 164 0.0 0.0 0.00 0.03 0.00 84 1018.3
20260901133551 26 164 0.0 0.0 0.00 0.03 0.00 84 1018.3
20260901133321 26 164 0.0 0.0 0.00 0.03 0.00 85 1018.3
20260901132551 26 164 0.0 0.0 0.00 0.03 0.00 86 1018.3
20260901132049 25 164 0.0 0.0 0.00 0.03 0.00 88 1018.3
20260901131547 25 164 0.0 0.0 0.00 0.03 0.00 89 1018.3
20260901131046 24 164 0.0 0.0 0.00 0.03 0.00 90 1018.2